Погода в Безенчуке

Погода в Безенчуке : погода сейчас, прогноз погоды и архив. Всё, что Вы хотите узнать о погоде в Безенчуке!

Хотите узнать прогноз погоды в Безенчуке? Тогда Вам сюда: Погода в Безенчуке

Поиск расширенной информации на нашем сайте:

Другие новости

Новости СМИ2

Главная страница сайта

Новости сайта

03.07.2017

Напоминаем, что на нашем специализированном сайте Метеоцентр.Азия вы можете получить высокодетализированные автоматические прогнозы погоды по пунктам России, СНГ и мира в авиационном формате (включающие направление и скорость ветра, видимость, явления погоды, количество и форму облачности, нижнюю и верхнюю границу облачности).


Погода в Безенчуке - сегодня

Время (UTC), дата Ветер
(°,м/с) 
Видим.   Явления Облачность Т
(°С)
Тd
(°С)
f(%) Тe
(°С)
Pmin
(гПа)
dP
(гПа)
Po
(мм)
O2
(г/м3)
Тmin Tmax R s Состояние
почвы
09 19.07.17 350 (С) 20000 м    4/4 1000 м 
[Cu med, cong]
+24.5 +15 55 +33  1016.1  -0.2  758  277           
12 19.07.17 020 (С) 20000 м    3/3 1000 м 
[Cu med, cong]
+26 +13.5 46 +32  1015.4  -0.7  757  276           
15 19.07.17 010 (С) 20000 м    1/0 верхняя 
[Ci fib]
+24.8 +12.3 46 +29  1015.3  0.1  757  277    +26.5       
18 19.07.17 320 (СЗ) 20000 м    ясно 
+17.3 +15 86 +27  1015.8  0.3  758  284           
21 19.07.17 тихо ()   21000 м    ясно 
+13.8 +12.8 94 +19  1015.8  0.1  758  288           
00 20.07.17 тихо ()   20000 м    3/0 
+12.2 +10.9 92 +14  1015.6  -0.4  757  290           
03 20.07.17 010 (С) 20000 м    6/3 1000 м средняя, верхняя 
[Sc diur, vesp|Ac trans|Ci fib]
+17.8 +14.9 83 +27  1015.3  -0.2  757  283  +11.7        сухая 
06 20.07.17 180 (Ю) 20000 м    8/6 600 м средняя, верхняя 
[Sc|Ac trans|Cs]
+20.7 +16.5 77 +32  1016  0.7  758  280           
09 20.07.17 100 (В) 20000 м    6/4 1000 м верхняя 
[Cu hum|Ci fib]
+24.5 +16.8 62 +36  1014.8  -1.2  757  276           
12 20.07.17 090 (В) 20000 м    8/3 1000 м средняя, верхняя 
[Cu hum|Ac trans|Ci fib]
+26.4 +16.6 55 +38  1013.4  -1.4  756  274           
15 20.07.17 060 (СВ) 20000 м    9/4 1000 м верхняя 
[Cu hum|Ci fib]
+25.9 +17.6 60 +39  1012.6  -0.7  755  274    +27       
18 20.07.17 050 (СВ) 20000 м    3/0 средняя, верхняя 
[Ac trans|Ci fib]
+20.3 +17.5 84 +33  1013.1  0.4  756  279           
21 20.07.17 060 (СВ) 23000 м    3/0 средняя 
[Ac trans]
+17.1 +15.5 90 +28  1013.1  0.1  756  283           
00 21.07.17 090 (В) 20000 м    6/6 1000 м 
[Sc]
+17.6 +16.6 94 +30  1012.9  -0.2  755  282           
03 21.07.17 020 (С) 20000 м    9/4 1000 м средняя, верхняя 
[Sc|Ac trans|Ci fib]
+18.8 +16.9 89 +32  1012.8  -0.1  755  281  +17        сухая 
06 21.07.17 050 (СВ) 20000 м  в посл. час дождь{гроза}  9/8 600 м средняя 
[Sc|Ac trans]
+20.6 +16.5 77 +32  1013.5  0.8  756  280           
09 21.07.17 080 (В) 20000 м    9/4 600 м средняя 
[Sc|Ac trans]
+24.9 +17.8 65 +39  1012.7  -0.8  755  275           
12 21.07.17 090 (В) 20000 м    9/1 1000 м средняя, верхняя 
[Cu hum|Ac trans|Ci fib]
+26.2 +16.8 56 +38  1011.8  -0.9  755  274           
15 21.07.17 070 (В) 20000 м    6/0 средняя, верхняя 
[Ac trans|Ci fib]
+25.5 +17.6 62 +39  1011.6  -0.2  755  274    +26.6  0.3     
18 21.07.17 030 (СВ) 20000 м    10/3 600 м верхняя 
[Sc|Ci fib]
+18.2 +17 93 +32  1012.1  0.4  755  281           
21 21.07.17 260 (З) 23000 м    ясно 
+15.3 +13.9 91 +24  1012  -0.2  755  285           
00 22.07.17 240 (ЮЗ) 4000 м  дымка  ясно 
+13.8 +12.5 92 +20  1012.2  0.2  755  287           
03 22.07.17 270 (З) 20000 м    3/0 верхняя 
[Ci fib]
+18.2 +16.5 90 +30  1012.7  0.6  755  282  +13.8        сухая 
06 22.07.17 310 (СЗ) 20000 м    ясно 
+24 +14.9 57 +32  1013.3  0.7  756  277           
09 22.07.17 310 (СЗ) 20000 м    1/1 1000 м 
[Cu hum]
+25.6 +11.7 42 +29  1013.6  0.3  756  276           
Время (UTC), дата Ветер
(°,м/с) 
Видим.   Явления Облачность Т
(°С)
Тd
(°С)
f(%) Тe
(°С)
Pmin
(гПа)
dP
(гПа)
Po
(мм)
O2
(г/м3)
Тmin Tmax R s Состояние
почвы

Для получения пояснительной информации подведите курсор к названию столбца.

ПОГОДА в Безенчуке - архив

Всё, что Вы хотите узнать о погоде в Безенчуке - удобно и подробно!

Выберите нужную дату (начиная с 1 января 2015* года) и нажмите кнопку "Найти".
Будут отображены архивные сводки погоды по пункту Безенчук, начиная с указанной даты.


Отображать данные в формате CSV (для использования в таблицах Excel)


Внимание! Наш архив погоды предназначен исключительно для личного некоммерческого использования в познавательных целях. Если Вам необходимы официальные справки о состоянии погоды (для производственных, юридических, коммерческих и т.п. целей), обращайтесь в органы Росгидромета.

*Примечание: данная дата относится к архиву по метеостанциям СССР (Россия, СНГ, Балтия).
Архив по метеостанциям Зарубежной Европы и Азии (кроме Китая) хранится 10 дней, по другим регионам земного шара (Китай, Африка, Америка, Австралия, Океания) - 1 день.

Безенчук - район местоположения метеостанции


Название, широта, долгота, высота метеостанции:
Безенчук 53°ш. 49.4°д. 46 м над ур. моря [Российская Федерация]

Дополнительная информация

В oтличие oт бoльшинства пoгoдных сайтoв мы публикуем пoдрoбную метеoинфoрмацию в детальнoм прoфессиoнальнoм фoрмате.

Характеристики температуры и влажнoсти вoздуха измеряются на высoте 2 м в тени вдали oт зданий и деревьев.
Скoрoсть ветра измеряется на высoте 10 м (на урoвне рoста челoвека скoрoсть ветра ниже в 1.5-2 раза). Если метеoстанция нахoдится в гoрoде или в лесу, тo скoрoсть ветра занижена на 2-4 м/с пo сравнению с oткрытым местoм. Скoрoсть ветра над акватoриями крупных рек и oзёр, а также на вершинах хoлмoв на 2-5 м/с выше, чем в oбычных услoвиях.
Атмoсфернoе давление в разных тoчках местнoсти мoжет значительнo oтличаться oт давления на метеoстанции, в зависимoсти oт услoвий рельефа (при пoдъёме на 10 м давление пoнижается примернo на 1 мм рт.ст.).